www.pogodaiklimat.ru

Погода и климат >> Архив погоды >> Япония >> Иидзука


ПОГОДА в Иидзуке

  • Прогноз погоды в Иидзуке
  • Монитор погоды в Иидзуке

АРХИВ ПОГОДЫ в Иидзуке

Время (UTC), дата Ветер
(напр.,м/с)
 
Видим.   Явления Облачность Т
(С)
Тd
(С)
f
(%)
Тe
(С)
Тes
(С)
Комфортность P
(гПа)
Po
(гПа)
Тmin
(С)
Tmax
(С)
R
(мм)
R24
(мм)
S
(см)
16 16.08 ЮЗ 2 10 км н/о +25.7 +23.2 86 +34 +34 очень
душно
1002.5 998.2
17 16.08 ЮЗ 2 9000 м дымка н/о +25.4 +23.1 87 +34 +34 очень
душно
1002.7 998.4
18 16.08 ЮЗ 2 8000 м дымка н/о +25.1 +23.2 89 +34 +34 очень
душно
1002.7 998.4
19 16.08 Ю 2 7000 м дымка н/о +24.7 +23.1 91 +33 +33 очень
душно
1003.2 998.9
20 16.08 З 1 5000 м дымка н/о +23.6 +22.8 95 +31 +31 очень
душно
1003.4 999.1
21 16.08 С 1 3800 м дымка н/о +22.9 +22.6 98 +31 +31 очень
душно
1003.7 999.4
22 16.08 штиль 0 4900 м дымка н/о +24.1 +22.9 93 +32 +32 очень
душно
1004.3 1000.0
23 16.08 Ю 2 11 км н/о +26.7 +23.6 83 +36 +36 очень
душно
1004.6 1000.3
00 17.08 Ю 4 15 км н/о +27.7 +22.9 75 +37 +37 очень
душно
1005.0 1000.7 +22.9
01 17.08 Ю 3 14 км н/о +28.9 +22.4 68 +38 +38 очень
душно
1004.9 1000.7
02 17.08 ЮЗ 2 17 км н/о +30.3 +23.0 65 +40 +40 очень
душно
1004.6 1000.4
03 17.08 ЮЗ 1 16 км н/о +30.3 +22.7 64 +40 +40 очень
душно
1004.2 1000.0
04 17.08 ЮЗ 2 16 км н/о +31.3 +22.6 60 +41 +41 опасность
перегрева
1004.0 999.8
05 17.08 Ю 2 18 км н/о +32.1 +21.3 53 +40 +40 очень
душно
1003.5 999.3
06 17.08 З 2 20 км н/о +33.1 +22.5 54 +43 +43 опасность
перегрева
1003.0 998.8
07 17.08 С 1 20 км н/о +32.8 +22.0 53 +41 +41 опасность
перегрева
1002.8 998.6
08 17.08 ЮЗ 2 18 км н/о +32.4 +22.5 56 +42 +42 опасность
перегрева
1002.7 998.5
09 17.08 С 3 20 км н/о +29.9 +23.6 69 +41 +41 опасность
перегрева
1003.3 999.1
10 17.08 С 3 19 км н/о +27.9 +23.1 75 +37 +37 очень
душно
1003.9 999.6
13 17.08 С 1 13 км н/о +25.8 +23.3 86 +35 +35 очень
душно
1005.8 1001.5
14 17.08 С 1 11 км н/о +25.3 +23.5 90 +34 +34 очень
душно
1006.1 1001.8
15 17.08 Ю 1 10 км н/о +25.0 +23.6 92 +34 +34 очень
душно
1006.3 1002.0
16 17.08 ЮВ 2 9000 м дымка н/о +24.9 +23.5 92 +34 +34 очень
душно
1006.3 1002.0
06 19.08 В 1 6000 м слаб. дождь н/о +27.2 +23.7 81 +37 +37 очень
душно
1008.1 1003.8 2
09 19.08 В 2 10 км в посл. час дождь н/о +26.7 +24.6 88 +38 +38 очень
душно
1008.6 1004.3
10 19.08 В 1 7000 м слаб. дождь н/о +26.0 +24.4 91 +36 +36 очень
душно
1008.5 1004.2
11 19.08 В 2 4700 м слаб. дождь н/о +25.2 +24.2 94 +35 +35 очень
душно
1008.4 1004.1
12 19.08 ЮВ 2 6000 м слаб. дождь н/о +25.5 +24.1 92 +35 +35 очень
душно
1008.1 1003.8 +29.4 3
13 19.08 Ю 1 4600 м в посл. час дождь н/о +25.2 +24.2 94 +35 +35 очень
душно
1008.8 1004.5
14 19.08 СВ 1 5000 м дымка н/о +25.0 +24.0 94 +34 +34 очень
душно
1009.2 1004.9
15 19.08 Ю 1 4300 м слаб. дождь н/о +25.0 +24.2 95 +34 +34 очень
душно
1009.2 1004.9
16 19.08 Ю 2 3700 м в посл. час дождь н/о +25.0 +24.3 96 +35 +35 очень
душно
1008.9 1004.6
17 19.08 ЮЗ 2 3800 м слаб. дождь н/о +25.0 +24.3 96 +35 +35 очень
душно
1008.6 1004.3
18 19.08 В 1 2100 м слаб. дождь н/о +24.4 +24.2 99 +34 +34 очень
душно
1008.1 1003.8 6
19 19.08 СЗ 1 1700 м дождь н/о +24.4 +24.2 99 +34 +34 очень
душно
1009.3 1005.0
20 19.08 С 1 2200 м дождь н/о +24.1 +24.1 100 +33 +33 очень
душно
1009.7 1005.4
21 19.08 СЗ 1 1500 м дождь н/о +23.9 +23.9 100 +33 +33 очень
душно
1010.3 1006.0
22 19.08 ЮВ 2 2600 м слаб. дождь н/о +23.4 +23.4 100 +33 +33 очень
душно
1010.0 1005.6
23 19.08 ЮЗ 2 6000 м слаб. дождь н/о +23.8 +23.8 100 +32 +32 очень
душно
1009.0 1004.7
00 20.08 ЮЗ 1 17 км слаб. дождь н/о +24.6 +24.3 98 +34 +34 очень
душно
1010.0 1005.7 +23.4 30
01 20.08 С 3 13 км слаб. дождь н/о +25.5 +24.8 96 +36 +36 очень
душно
1009.4 1005.1
02 20.08 ЮЗ 1 12 км слаб. дождь н/о +26.0 +25.1 95 +37 +37 очень
душно
1010.0 1005.7
03 20.08 ЮЗ 1 17 км в посл. час дождь н/о +26.8 +25.4 92 +39 +39 очень
душно
1009.9 1005.6
04 20.08 ЮЗ 1 20 км слаб. дождь н/о +27.6 +24.9 85 +39 +39 очень
душно
1009.5 1005.2
05 20.08 ЮВ 2 20 км в посл. час дождь н/о +28.3 +26.1 88 +43 +43 опасность
перегрева
1009.1 1004.8
06 20.08 ЮВ 3 20 км в посл. час дождь н/о +28.8 +25.0 80 +42 +42 опасность
перегрева
1008.6 1004.3 0.0
07 20.08 В 1 20 км слаб. дождь н/о +28.3 +25.5 85 +42 +42 опасность
перегрева
1008.8 1004.5
08 20.08 В 2 10 км слаб. дождь н/о +26.8 +25.6 93 +39 +39 очень
душно
1008.6 1004.3
10 20.08 З 2 2400 м дождь н/о +26.2 +26.2 100 +39 +39 очень
душно
1009.6 1005.3
11 20.08 В 1 2300 м дождь н/о +25.8 +25.8 100 +38 +38 очень
душно
1009.9 1005.6
12 20.08 ЮВ 2 2700 м слаб. дождь н/о +25.6 +25.6 100 +37 +37 очень
душно
1010.5 1006.2 +29.1 27
13 20.08 ЮЗ 1 5000 м слаб. дождь н/о +25.8 +25.8 100 +38 +38 очень
душно
1010.3 1006.0
14 20.08 СВ 2 2900 м слаб. дождь н/о +25.7 +25.7 100 +38 +38 очень
душно
1009.8 1005.5
15 20.08 В 1 5000 м слаб. дождь н/о +25.6 +25.6 100 +37 +37 очень
душно
1009.6 1005.3
16 20.08 ЮВ 2 5000 м слаб. дождь н/о +25.5 +25.3 99 +37 +37 очень
душно
1009.4 1005.1
17 20.08 Ю 2 4100 м слаб. дождь н/о +25.6 +25.4 99 +37 +37 очень
душно
1009.5 1005.2
18 20.08 ЮВ 2 7000 м слаб. дождь н/о +25.8 +25.1 96 +37 +37 очень
душно
1009.5 1005.2 0.5
20 20.08 ЮЗ 3 13 км в посл. час дождь н/о +26.6 +24.8 90 +38 +38 очень
душно
1009.3 1005.0
22 20.08 Ю 3 15 км слаб. дождь н/о +26.9 +24.8 88 +38 +38 очень
душно
1010.2 1005.9
23 20.08 Ю 3 15 км в посл. час дождь н/о +27.3 +25.1 88 +39 +39 очень
душно
1010.3 1006.0
00 21.08 Ю 4 17 км {дождь} н/о +28.7 +25.3 82 +42 +42 опасность
перегрева
1010.5 1006.2 +25.4 0.5
01 21.08 Ю 4 20 км н/о +29.4 +25.0 77 +42 +42 опасность
перегрева
1011.0 1006.7
02 21.08 Ю 4 20 км н/о +31.2 +24.6 68 +44 +44 опасность
перегрева
1010.7 1006.5
03 21.08 Ю 4 20 км н/о +30.2 +24.6 72 +43 +43 опасность
перегрева
1010.3 1006.0
05 21.08 Ю 5 20 км н/о +32.4 +24.7 64 +45 +45 опасность
перегрева
1009.2 1005.0
06 21.08 Ю 5 20 км н/о +33.1 +24.3 60 +45 +45 опасность
перегрева
1009.0 1004.8
07 21.08 ЮЗ 4 20 км н/о +31.2 +23.6 64 +42 +42 опасность
перегрева
1009.3 1005.1
09 21.08 ЮЗ 3 20 км н/о +31.4 +23.8 64 +43 +43 опасность
перегрева
1009.3 1005.1
10 21.08 ЮЗ 2 20 км н/о +30.3 +23.7 68 +41 +41 опасность
перегрева
1009.6 1005.4
11 21.08 ЮЗ 1 20 км в посл. час дождь н/о +28.8 +24.8 79 +41 +41 опасность
перегрева
1010.5 1006.2
12 21.08 ЮВ 3 16 км {дождь} н/о +27.5 +24.8 85 +39 +39 очень
душно
1010.9 1006.6 +33.6 0.0
13 21.08 Ю 2 11 км н/о +27.1 +24.9 88 +39 +39 очень
душно
1011.1 1006.8
15 21.08 Ю 3 20 км н/о +26.9 +24.2 85 +37 +37 очень
душно
1010.6 1006.3
16 21.08 ЮВ 3 20 км н/о +26.6 +24.1 86 +37 +37 очень
душно
1009.9 1005.6
17 21.08 Ю 3 20 км н/о +26.5 +24.0 86 +37 +37 очень
душно
1009.8 1005.5
18 21.08 Ю 3 20 км н/о +26.5 +24.4 88 +37 +37 очень
душно
1009.5 1005.2
19 21.08 Ю 3 20 км н/о +26.4 +23.9 86 +36 +36 очень
душно
1009.4 1005.1
20 21.08 ЮВ 3 20 км н/о +26.4 +23.7 85 +36 +36 очень
душно
1009.8 1005.5
22 21.08 Ю 3 19 км н/о +27.1 +23.8 82 +37 +37 очень
душно
1010.0 1005.7
23 21.08 Ю 5 20 км н/о +27.7 +23.5 78 +38 +38 очень
душно
1009.9 1005.6
00 22.08 Ю 4 20 км н/о +29.0 +23.9 74 +40 +40 очень
душно
1010.0 1005.7 +26.2
01 22.08 Ю 4 20 км слаб. дождь н/о +29.2 +23.6 72 +40 +40 очень
душно
1009.7 1005.4
02 22.08 Ю 5 18 км в посл. час дождь н/о +29.3 +24.2 74 +41 +41 опасность
перегрева
1009.5 1005.2
04 22.08 Ю 5 20 км н/о +30.9 +24.8 70 +44 +44 опасность
перегрева
1008.2 1004.0
05 22.08 ЮЗ 5 20 км н/о +31.7 +24.6 66 +44 +44 опасность
перегрева
1007.7 1003.5
06 22.08 Ю 5 20 км {дождь} н/о +31.3 +25.7 72 +46 +46 опасность
перегрева
1007.3 1003.1 0.0
07 22.08 Ю 6 20 км н/о +30.5 +24.6 71 +43 +43 опасность
перегрева
1007.2 1003.0
08 22.08 Ю 4 20 км слаб. дождь н/о +30.0 +24.9 74 +43 +43 опасность
перегрева
1007.5 1003.3
09 22.08 Ю 4 20 км в посл. час дождь н/о +29.4 +25.0 77 +42 +42 опасность
перегрева
1007.8 1003.5
11 22.08 Ю 3 20 км в посл. час дождь н/о +28.5 +24.1 77 +40 +40 очень
душно
1008.4 1004.1
12 22.08 ЮЗ 1 16 км слаб. дождь н/о +25.9 +23.6 87 +35 +35 очень
душно
1009.2 1004.9 +31.8 0.5
13 22.08 Ю 2 20 км слаб. дождь н/о +26.8 +25.2 91 +39 +39 очень
душно
1009.1 1004.8
14 22.08 Ю 2 13 км слаб. дождь н/о +26.1 +25.4 96 +38 +38 очень
душно
1009.0 1004.7
15 22.08 ЮЗ 5 20 км в посл. час дождь н/о +26.4 +23.9 86 +36 +36 очень
душно
1008.7 1004.4
16 22.08 ЮЗ 4 10 км слаб. дождь н/о +26.1 +24.0 88 +36 +36 очень
душно
1008.7 1004.4
17 22.08 Ю 3 20 км слаб. дождь н/о +24.9 +23.0 89 +33 +33 очень
душно
1008.5 1004.2
18 22.08 З 1 2400 м дождь н/о +24.0 +23.3 96 +32 +32 очень
душно
1008.5 1004.2 4
19 22.08 Ю 1 4800 м слаб. дождь н/о +24.1 +23.9 99 +33 +33 очень
душно
1008.6 1004.3
20 22.08 Ю 4 9000 м слаб. дождь н/о +23.9 +23.2 96 +32 +32 очень
душно
1008.9 1004.6
21 22.08 Ю 3 20 км в посл. час дождь н/о +24.4 +23.7 96 +33 +33 очень
душно
1009.1 1004.8
22 22.08 Ю 2 20 км в посл. час дождь н/о +24.6 +23.9 96 +34 +34 очень
душно
1009.4 1005.1
23 22.08 Ю 3 20 км н/о +25.5 +24.3 93 +35 +35 очень
душно
1009.5 1005.2
00 23.08 Ю 3 20 км {дождь} н/о +27.2 +24.7 86 +39 +39 очень
душно
1009.9 1005.6 +23.9 8
01 23.08 Ю 4 20 км н/о +27.8 +24.0 80 +39 +39 очень
душно
1010.0 1005.7
02 23.08 Ю 4 17 км в посл. час дождь н/о +27.7 +24.6 83 +39 +39 очень
душно
1009.9 1005.6
03 23.08 Ю 4 19 км {дождь} н/о +29.5 +24.4 74 +41 +41 опасность
перегрева
1009.5 1005.2
04 23.08 ЮЗ 3 20 км н/о +29.8 +24.2 72 +42 +42 опасность
перегрева
1009.0 1004.7
05 23.08 Ю 3 19 км в посл. час дождь н/о +30.2 +24.8 73 +43 +43 опасность
перегрева
1008.6 1004.4
06 23.08 Ю 2 15 км {дождь} н/о +30.8 +24.7 70 +44 +44 опасность
перегрева
1008.4 1004.2 0.0
07 23.08 ЮВ 1 16 км н/о +30.4 +25.0 73 +44 +44 опасность
перегрева
1008.3 1004.1
08 23.08 СЗ 3 13 км н/о +29.5 +23.2 69 +40 +40 очень
душно
1008.8 1004.5
09 23.08 З 2 12 км н/о +28.4 +23.3 74 +38 +38 очень
душно
1009.0 1004.7
11 23.08 Ю 3 13 км слаб. дождь н/о +26.3 +23.6 85 +36 +36 очень
душно
1010.1 1005.8
13 23.08 Ю 2 10 км в посл. час дождь н/о +25.3 +23.7 91 +34 +34 очень
душно
1010.6 1006.3
14 23.08 Ю 2 10 км слаб. дождь н/о +25.3 +23.5 90 +34 +34 очень
душно
1010.4 1006.1
15 23.08 Ю 2 10 км слаб. дождь н/о +25.2 +23.4 90 +34 +34 очень
душно
1010.5 1006.2
16 23.08 Ю 2 10 км в посл. час дождь н/о +25.2 +23.6 91 +34 +34 очень
душно
1010.4 1006.1
17 23.08 Ю 3 9000 м дымка н/о +25.3 +23.5 90 +34 +34 очень
душно
1010.2 1005.9

 

Местоположение метеостанции Иидзука (Япония): широта 33.65 долгота 130.69 высота над уровнем моря 38 м.

В архиве по умолчанию представлена погода в Иидзуке за последнюю неделю. Архивные данные за месяц целиком и за предыдущие месяцы, начиная с января 2011 года, Вы можете получить, выбрав интересующий диапазон дат из раскрывающегося списка и нажав кнопку "Ввод!".


*Определитесь, кто Вы:
робот инопланетянин человек

Внимание! Время в таблицах - всемирное. Для получения местного времени необходимо прибавить поправку, которая равна 9 ч.

Смотрите также архив погоды в соседних городах и на ближайших метеорологических станциях:

Погода в Фукуоке (Япония) (30 км)
Погода в Симоносеки (Япония) (40 км)
Погода в Хите (Япония) (43 км)
Погода в Саге (Япония) (56 км)
Погода в Ямагути (Япония) (91 км)
Погода на Асо (Япония) (92 км)
Погода в Кумамото (Япония) (92 км)
Погода в Оите (Япония) (97 км)
Погода в Сасебо (Япония) (105 км)
Погода в Хаги (Япония) (108 км)

Пояснения к столбцам:

Ветер - указаны скорость ветра в м/с - средняя за 10 мин, порывы в срок и между сроками (в фигурных скобках) и направление, откуда дует ветер: С - северный, СВ - северо-восточный, В - восточный, ЮВ - юго-восточный, Ю - южный, ЮЗ - юго-западный, З - западный, СЗ - северо-западный.
Видимость - горизонтальная дальность видимости в метрах или километрах. При видимости от 1 до 10 км при отсутствии осадков обычно наблюдается дымка, при ухудшении видимости до 1 км и менее - туман. В сухую погоду видимость может ухудшаться дымом, пылью или мглою.
Явления - указаны атмосферные явления, наблюдавшиеся в срок или в последний час перед сроком; фигурными скобками обозначены явления, наблюдавшиеся между сроками (за 1-3 часа до срока); квадратными скобками обозначены град или гололедные отложения с указанием их диаметра в мм.
Облачность - указаны через наклонную черту общая и нижняя облачность в баллах и высота нижней границы облаков в метрах; квадратными скобками обозначены формы облаков: Ci - перистые, Cs - перисто-слоистые, Cc - перисто-кучевые, Ac - высококучевые, As - высокослоистые, Sc - слоисто-кучевые, Ns - слоисто-дождевые, Cu - кучевые, Cb - кучево-дождевые. Подробнее классификацию облаков см. в Атласе облаков (PDF).
T - Температура воздуха - температура, измеренная на высоте 2 м над землей.
Td - Температура точки росы - температура, при понижении до которой содержащийся в воздухе водяной пар достигнет насыщения.
f - Относительная влажность воздуха - влажноcть воздуха, измеренная на высоте 2 м над землей.
Te - Эффективная температура - температура, которую ощущает одетый по сезону человек в тени. Характеристика душности погоды. При расчете учитывается влияние влажности воздуха и скорости ветра на теплоощущения человека.
Tes - Эффективная температура на солнце - температура, которую ощущает человек, с поправкой на солнечный нагрев. Характеристика знойности погоды. Зависит от высоты солнца над горизонтом, облачности и скорости ветра. Ночью, в пасмурную погоду, а также при ветре 12 м/с и более поправка равна нулю.
P - Атмосферное давление - приведенное к уровню моря атмосферное давление.
Po - Атмосферное давление - измеренное на уровне метеостанции атмосферное давление.
Tmin - Минимальная температура - минимум температуры воздуха на высоте 2 м над землей.
Tmax - Максимальная температура - максимум температуры воздуха на высоте 2 м над землей.
R - Количество осадков - Количество выпавших осадков за период времени, мм. При наведении курсора мыши на число - период времени, за который выпало указанное количество осадков.
R24 - Количество осадков - Количество выпавших осадков за 24 часа, мм.
S - Снежный покров - Высота снежного покрова, см. При наведении курсора мыши на число - состояние снежного покрова и степень покрытия местности в баллах.